Location: Helmsheim
(49.0846°N, 8.6427°E)
Time: 21:25:46
(UTC+00:00)

Daily predictions for brighter satellites

Satellite Brightness Start Highest point End
(mag) Time Altitude Azimuth Time Altitude Azimuth Time Altitude Azimuth
Cosmos 724 4.3 15:51:02 10° NW 15:57:08 69° NE 16:03:01 10° SE
CZ-4C R/B 3.0 15:53:13 10° NW 15:59:54 65° NE 16:08:16 10° SE
Cosmos 2266 Rocket 4.4 15:55:44 10° N 16:01:29 39° ENE 16:07:07 10° SE
Cosmos 405 Rocket 2.2 16:00:01 10° NNW 16:03:17 89° WSW 16:06:30 10° S
CBERS-1 4.0 15:59:39 10° SSE 16:04:42 67° ENE 16:09:47 10° N
SMAP 3.5 16:01:51 10° SE 16:06:11 39° ENE 16:10:31 10° N
Cosmos 2297 Rocket 2.2 16:03:37 10° NNW 16:09:20 77° ENE 16:14:59 10° SSE
Landsat 7 4.4 16:06:49 10° SE 16:11:01 35° ENE 16:15:14 10° N
Cosmos 1626 Rocket 3.5 16:09:48 10° N 16:14:09 89° E 16:18:27 10° S
Meteor 1-28 Rocket 3.1 16:11:48 10° NNE 16:15:06 50° E 16:18:20 10° S
NOSS 2-2 (C) 3.9 16:13:40 10° WSW 16:16:34 34° NW 16:19:22 10° NNE
Cosmos 1315 Rocket 4.1 16:18:34 10° SW 16:22:10 39° WNW 16:25:49 10° N
BlueWalker 3 4.3 16:20:16 10° W 16:23:17 25° SW 16:26:16 10° SSE
Cosmos 1606 Rocket 4.5 16:19:47 10° SSE 16:23:33 29° E 16:27:23 10° NNE
ATLAS CENTAUR R/B 2.7 16:22:41 10° NW 16:25:39 34° WSW 16:28:30 10° S
Thor Agena Rocket 3.5 16:21:56 10° SSE 16:27:08 76° ENE 16:32:17 10° NNW
Cosmos 1503 Rocket 4.2 16:22:49 10° S 16:27:53 53° ESE 16:32:57 10° NNE
Cosmos 2219 4.2 16:24:07 10° NNW 16:28:56 27° NE 16:33:44 10° ESE
CENTAUR R/B 3.4 16:23:51 10° W 16:29:32 43° NNW 16:36:40 10° NE
Cosmos 1484 Rocket 3.2 16:28:21 10° S 16:31:49 57° W 16:35:17 10° NNW
Cosmos 1544 Rocket 3.7 16:28:16 10° SSW 16:32:40 81° W 16:37:08 10° N
USA 290 2.7 16:29:54 10° NNW 16:33:08 63° WSW 16:36:21 10° SSE
SL-16 R/B 2.6 16:27:16 10° NNE 16:33:32 85° WNW 16:39:44 10° SSW
GEOS 3 Rocket 3.9 16:28:51 10° NE 16:34:06 58° SE 16:39:23 10° SSW
AQUARIUS 4.5 16:30:01 10° SE 16:34:09 41° ENE 16:38:17 10° N
Cosmos 1980 Rocket 3.4 16:30:45 10° SSE 16:34:55 21° E 16:37:57 14° ENE
Lacrosse 5 rocket 2.4 16:31:50 10° WNW 16:35:06 28° NNW 16:37:41 14° NE
Cosmos 1844 Rocket 4.3 16:32:41 10° N 16:35:38 14° NNE 16:37:19 13° NE
Cosmos 1354 Rocket 4.4 16:32:32 10° S 16:37:32 46° ESE 16:42:32 10° NNE
Meteor 1-25 Rocket 4.3 16:33:23 10° N 16:39:10 62° ENE 16:44:52 10° SSE
Meteor 1-5 Rocket 4.5 16:34:09 10° N 16:39:12 41° ENE 16:44:21 10° SE
Lacrosse 4 Rocket 3.6 16:37:06 10° W 16:39:49 17° NW 16:42:32 10° N
BREEZE M DEB (TANK) 2.9 16:37:51 10° SW 16:40:10 30° SSE 16:41:17 18° ESE
CORIOLIS 4.1 16:36:01 10° SSE 16:41:21 86° ENE 16:46:43 10° NNW
IRIDIUM 104 4.3 16:38:42 10° N 16:43:56 76° E 16:49:10 10° S
Cosmos 1777 Rocket 4.0 16:38:49 10° SSW 16:44:04 83° ESE 16:49:20 10° NNE
Cosmos 2263 Rocket 2.6 16:38:49 10° NNW 16:44:12 42° NE 16:49:35 10° ESE
Cosmos 1726 Rocket 4.2 16:43:09 10° SSE 16:47:25 38° E 16:51:40 10° NNE
CZ-2D R/B 2.7 16:44:58 10° SSE 16:48:03 59° ENE 16:51:10 10° N
USA 238 DEB 4.3 16:44:45 10° S 16:50:00 31° ESE 16:53:47 18° ENE
USA 238 4.3 16:44:53 10° S 16:50:07 31° ESE 16:53:52 18° ENE
Okean 1-7 Rocket 3.4 16:46:47 10° N 16:51:12 80° ENE 16:55:33 10° SSE
IRIDIUM 114 4.3 16:47:50 10° N 16:53:05 90° E 16:58:19 10° S
Cosmos 1602 Rocket 3.9 16:48:44 10° NNW 16:53:07 68° W 16:57:25 10° S
ERS-1 4.4 16:48:40 10° SSE 16:53:38 68° ENE 16:58:34 10° N
Cosmos 1461 2.7 16:51:51 10° SW 16:55:44 81° NW 16:58:30 19° NE
Cosmos 1933 3.1 16:53:41 10° S 16:57:29 66° E 17:01:18 10° NNE
USA 215 3.8 16:53:50 17° ENE 16:58:31 45° N 17:04:40 10° WNW
IRS-1C 4.1 16:54:00 10° SSE 16:59:20 88° ENE 17:04:42 10° NNW
YAOGAN 1 3.3 16:56:28 10° SE 17:00:09 30° ENE 17:03:53 10° N
Cosmos-2242 4.1 16:56:57 10° SE 17:00:12 22° E 17:00:12 22° E
Cosmos 2227 Rocket 2.1 16:55:05 10° NNW 17:00:46 84° ENE 17:06:26 10° SSE
SKYMED 2 4.3 16:58:49 20° NE 17:01:01 32° E 17:04:54 10° SSE
BREEZE-M DEB (TANK) 4.3 16:58:14 10° SSW 17:01:15 18° SSE 17:02:21 15° SE
IRIDIUM 103 4.5 16:57:00 10° N 17:02:15 77° W 17:07:27 10° S
NOSS 2-3 (E) 3.7 16:58:50 10° SSW 17:02:16 40° ESE 17:03:38 28° ENE
NOSS 2-3 (D) 3.8 16:59:31 10° SSW 17:02:57 38° ESE 17:04:13 28° E
Cosmos 1743 4.2 17:00:38 10° NNW 17:03:34 32° W 17:06:29 10° SSW
SJ-12 3.7 17:00:24 10° SSE 17:04:10 88° WSW 17:07:59 10° NNW
Cosmos 2369 Rocket 4.5 17:02:20 10° NW 17:04:54 13° NNW 17:07:28 10° N
Cosmos 2151 3.9 17:03:09 10° NNW 17:07:11 49° W 17:11:11 10° SSW
Cosmos 1655 Rocket 3.9 17:06:55 10° N 17:13:11 70° E 17:19:22 10° SSE
Meteor 2-10 4.2 17:09:06 10° N 17:14:19 50° ENE 17:19:41 10° SSE
Cosmos 1697 Rocket 2.6 17:09:13 10° SSW 17:14:50 85° ESE 17:19:15 17° NNE
Cosmos 990 Rocket 3.9 17:10:01 10° SSW 17:15:08 79° ESE 17:19:09 17° NNE
CZ-4 R/B 4.2 17:11:44 10° SSE 17:15:37 61° ENE 17:19:31 10° N
Cosmos 1867 4.2 17:10:19 10° NW 17:15:41 58° WSW 17:21:00 10° SSE
MOS 1 Rocket 3.5 17:11:59 10° SSE 17:16:56 85° WSW 17:22:10 10° NNW
Cosmos 1953 Rocket 3.5 17:12:32 10° N 17:16:59 65° ENE 17:21:24 10° SSE
Aureole 1 Rocket 3.8 17:13:21 10° S 17:17:32 40° ESE 17:19:37 28° NE
SAR-Lupe-4 4.3 17:14:08 10° S 17:17:36 55° WSW 17:21:08 10° NNW
ARIANE 5 R/B 3.2 17:19:22 10° S 17:24:21 57° W 17:29:26 10° NNW
Cosmos 1825 Rocket 4.0 17:21:59 10° NNW 17:26:17 62° W 17:30:31 10° S
COSMOS 2455 4.4 17:27:02 10° SSE 17:29:38 18° SE 17:29:38 18° SE
NOAA 6 4.2 17:26:58 10° SE 17:31:49 46° ENE 17:36:40 10° N
Cosmos 1680 Rocket 4.3 17:27:39 10° N 17:31:46 31° NE 17:31:46 31° NE
USA 81 3.9 17:28:47 10° N 17:34:04 70° E 17:39:19 10° SSE
CZ-2D R/B 3.3 17:31:26 10° SSE 17:35:37 77° ENE 17:39:45 10° N
Radarsat Rocket 4.5 17:29:11 10° SSE 17:37:13 70° ENE 17:44:23 10° NNW
IRAS Rocket 4.1 17:32:45 10° SSE 17:38:09 63° ENE 17:43:34 10° NNW
NOSS 3-2 (A) 4.5 17:33:55 10° W 17:38:48 33° NNW 17:42:25 19° NNE
Gbstr 26 Del rocket 2.5 17:35:17 10° WSW 17:39:16 81° SSE 17:39:37 71° E
Meteor 2-2 Rocket 4.3 17:33:57 10° S 17:39:24 52° E 17:41:51 31° NE
NOSS 3-2 (C) 3.7 17:34:41 10° WSW 17:39:47 54° NW 17:43:16 25° NNE
SPOT 1/Viking Rocket 3.6 17:36:06 10° SSE 17:41:19 82° WSW 17:46:33 10° NNW
PSLV R/B 3.2 17:43:07 65° E 17:43:16 66° ENE 17:47:19 10° N
Cosmos 1076 Rocket 4.0 17:40:06 10° NNW 17:44:22 62° W 17:48:37 10° S
SL-19 R/B 4.1 17:41:32 10° SSE 17:46:55 75° ENE 17:52:38 10° NNW
Cosmos 2082 3.6 17:42:21 10° NNW 17:48:04 66° ENE 17:50:41 32° SE
CZ-4C R/B 4.2 17:41:33 10° NW 17:48:17 43° WSW 17:56:20 10° S
COSMO-SKYMED 1 2.6 17:49:12 56° SE 17:49:12 56° SE 17:52:44 10° S
Cosmos 2058 Rocket 2.9 17:45:22 10° S 17:49:49 77° E 17:50:44 55° NNE
Cosmos 1538 Rocket 4.5 17:55:04 10° NNW 18:00:17 61° WSW 18:05:31 10° S
Meteor 2-11 Rocket 4.4 17:54:20 10° N 18:00:28 62° ENE 18:06:33 10° SSE
Nadezhda 2 Rocket 4.3 17:56:02 10° N 18:02:13 81° E 18:08:18 10° SSE
Meteor 1-26 Rocket 3.9 17:58:21 10° S 18:03:44 82° E 18:05:35 43° NNE
Cosmos 1553 Rocket 3.8 18:04:54 10° S 18:11:03 79° E 18:14:52 25° NNE
Resurs 1-3 4.1 18:07:59 10° S 18:12:12 57° W 18:16:28 10° NNW
Lacrosse 5 rocket 3.3 18:09:52 10° NW 18:11:16 18° NNW 18:11:16 18° NNW
Cosmos 2219 3.4 18:07:53 10° NNW 18:13:37 71° WSW 18:17:57 18° SSE
Cosmos 1980 Rocket 2.3 18:12:40 10° SW 18:18:19 71° WNW 18:19:44 50° N
USA 281 4.5 18:22:44 25° NNE 18:22:44 25° NNE 18:26:07 10° NNW
Cosmos 1844 Rocket 3.6 18:15:27 10° NNW 18:18:59 35° N 18:18:59 35° N
CENTAUR R/B 4.2 18:16:26 10° WNW 18:22:10 27° N 18:24:02 25° NNE
Cosmos 1745 Rocket 4.4 18:20:25 10° N 18:24:48 47° NNE 18:24:48 47° NNE
Cosmos 2263 Rocket 3.5 18:22:51 10° NW 18:28:05 39° WSW 18:33:18 10° S
Cosmos 1898 Rocket 3.6 18:25:13 10° SSW 18:30:11 69° W 18:30:11 69° W
Cosmos 2369 3.7 18:25:31 10° SSW 18:30:42 75° SSW 18:30:42 75° SSW
YAOGAN 1 4.2 18:32:09 10° SSW 18:35:57 32° W 18:39:48 10° NNW
Cosmos-2242 4.4 18:33:05 10° SW 18:36:35 37° W 18:36:35 37° W
USA 238 DEB 3.7 18:34:16 10° SW 18:40:24 66° NW 18:41:14 60° N
USA 238 3.7 18:34:20 10° SW 18:40:30 67° NW 18:41:20 61° N
USA 215 3.4 18:41:10 58° N 18:41:10 58° N 18:47:22 10° WNW
Cosmos 1937 Rocket 4.5 18:44:00 10° SSW 18:47:30 42° SW 18:47:30 42° SW
COSMOS 2455 4.4 19:10:19 10° SW 19:12:49 26° SW 19:12:49 26° SW
